TimeEDT,TemperatureF,Dew PointF,Humidity,Sea Level PressureIn,VisibilityMPH,Wind Direction,Wind SpeedMPH,Gust SpeedMPH,PrecipitationIn,Events,Conditions,WindDirDegrees,DateUTC
12:15 AM,69.8,68.0,94,30.12,0.5,North,-9999.0,-,N/A,,Overcast,0,2013-08-28 04:15:00
12:35 AM,69.8,68.0,94,30.12,1.0,Calm,Calm,-,N/A,,Overcast,0,2013-08-28 04:35:00
12:55 AM,69.8,68.0,94,30.11,0.2,NNE,6.9,-,N/A,,Overcast,20,2013-08-28 04:55:00
1:15 AM,69.8,68.0,94,30.11,0.2,North,-9999.0,-,N/A,,Overcast,0,2013-08-28 05:15:00
1:35 AM,69.8,68.0,94,30.11,0.2,North,-9999.0,-,N/A,,Overcast,0,2013-08-28 05:35:00
1:55 AM,68.0,68.0,100,30.10,0.2,NNE,5.8,-,N/A,,Overcast,20,2013-08-28 05:55:00
2:15 AM,68.0,68.0,100,30.10,0.2,Calm,Calm,-,N/A,,Overcast,0,2013-08-28 06:15:00
2:35 AM,68.0,68.0,100,30.10,0.2,Calm,Calm,-,N/A,,Overcast,0,2013-08-28 06:35:00
2:55 AM,68.0,68.0,100,30.09,0.2,Calm,Calm,-,N/A,,Overcast,0,2013-08-28 06:55:00
3:15 AM,68.0,68.0,100,30.09,0.2,North,4.6,-,N/A,,Overcast,10,2013-08-28 07:15:00
3:35 AM,68.0,68.0,100,30.08,0.2,Calm,Calm,-,N/A,,Overcast,0,2013-08-28 07:35:00
3:55 AM,68.0,68.0,100,30.07,0.2,Calm,Calm,-,N/A,,Overcast,0,2013-08-28 07:55:00
4:15 AM,68.0,68.0,100,30.08,0.2,Calm,Calm,-,N/A,,Overcast,0,2013-08-28 08:15:00
4:35 AM,68.0,68.0,100,30.08,0.2,Calm,Calm,-,N/A,,Overcast,0,2013-08-28 08:35:00
4:55 AM,68.0,68.0,100,30.08,0.2,Calm,Calm,-,N/A,,Overcast,0,2013-08-28 08:55:00
5:15 AM,68.0,68.0,100,30.08,0.2,Calm,Calm,-,N/A,,Overcast,0,2013-08-28 09:15:00
5:35 AM,68.0,68.0,100,30.08,0.2,Calm,Calm,-,N/A,,Overcast,0,2013-08-28 09:35:00
5:55 AM,68.0,68.0,100,30.08,0.2,Calm,Calm,-,N/A,,Overcast,0,2013-08-28 09:55:00
6:15 AM,68.0,68.0,100,30.09,1.8,Calm,Calm,-,N/A,,Overcast,0,2013-08-28 10:15:00
6:35 AM,68.0,68.0,100,30.10,1.5,North,-9999.0,-,N/A,,Overcast,0,2013-08-28 10:35:00
6:55 AM,68.0,68.0,100,30.10,3.0,South,3.5,-,N/A,,Overcast,190,2013-08-28 10:55:00
7:15 AM,68.0,68.0,100,30.11,1.5,Calm,Calm,-,N/A,,Overcast,0,2013-08-28 11:15:00
7:35 AM,68.0,68.0,100,30.10,0.5,Calm,Calm,-,N/A,,Overcast,0,2013-08-28 11:35:00
7:55 AM,68.0,68.0,100,30.10,1.0,Calm,Calm,-,N/A,,Overcast,0,2013-08-28 11:55:00
8:15 AM,68.0,68.0,100,30.10,2.5,Calm,Calm,-,N/A,,Overcast,0,2013-08-28 12:15:00
8:35 AM,69.8,68.0,94,30.10,3.0,West,3.5,-,N/A,,Overcast,270,2013-08-28 12:35:00
8:55 AM,69.8,68.0,94,30.10,3.0,Calm,Calm,-,N/A,,Overcast,0,2013-08-28 12:55:00
9:15 AM,69.8,69.8,100,30.10,5.0,Calm,Calm,-,N/A,,Overcast,0,2013-08-28 13:15:00
9:35 AM,71.6,69.8,94,30.10,5.0,West,5.8,-,N/A,,Overcast,280,2013-08-28 13:35:00
9:55 AM,73.4,69.8,88,30.10,5.0,West,4.6,-,N/A,,Overcast,280,2013-08-28 13:55:00
10:15 AM,73.4,69.8,88,30.10,5.0,West,3.5,-,N/A,,Overcast,260,2013-08-28 14:15:00
10:35 AM,77.0,69.8,78,30.10,5.0,West,4.6,-,N/A,,Overcast,260,2013-08-28 14:35:00
10:55 AM,77.0,69.8,78,30.11,7.0,SSW,3.5,-,N/A,,Overcast,200,2013-08-28 14:55:00
11:15 AM,78.8,68.0,69,30.11,7.0,Calm,Calm,-,N/A,,Mostly Cloudy,0,2013-08-28 15:15:00
11:35 AM,80.6,68.0,65,30.11,10.0,SW,4.6,-,N/A,,Mostly Cloudy,220,2013-08-28 15:35:00
11:55 AM,80.6,68.0,65,30.11,10.0,SW,3.5,-,N/A,,Mostly Cloudy,220,2013-08-28 15:55:00
12:15 PM,82.4,68.0,62,30.10,10.0,SSW,4.6,-,N/A,,Mostly Cloudy,200,2013-08-28 16:15:00
12:35 PM,80.6,68.0,65,30.10,10.0,North,-9999.0,-,N/A,,Overcast,0,2013-08-28 16:35:00
12:55 PM,82.4,68.0,62,30.09,10.0,SW,4.6,-,N/A,,Overcast,220,2013-08-28 16:55:00
1:15 PM,84.2,66.2,55,30.08,10.0,SW,4.6,-,N/A,,Overcast,220,2013-08-28 17:15:00
1:35 PM,84.2,68.0,58,30.08,10.0,SSW,3.5,-,N/A,,Mostly Cloudy,210,2013-08-28 17:35:00
1:55 PM,84.2,66.2,55,30.07,10.0,SW,3.5,-,N/A,,Mostly Cloudy,230,2013-08-28 17:55:00
2:15 PM,86.0,66.2,51,30.07,10.0,SW,5.8,-,N/A,,Mostly Cloudy,230,2013-08-28 18:15:00
2:35 PM,86.0,66.2,51,30.06,10.0,SW,8.1,-,N/A,,Mostly Cloudy,230,2013-08-28 18:35:00
2:55 PM,86.0,68.0,55,30.06,10.0,Calm,Calm,-,N/A,,Mostly Cloudy,0,2013-08-28 18:55:00
3:15 PM,86.0,66.2,51,30.05,10.0,West,5.8,-,N/A,,Mostly Cloudy,280,2013-08-28 19:15:00
3:35 PM,86.0,66.2,51,30.04,10.0,SW,5.8,-,N/A,,Scattered Clouds,220,2013-08-28 19:35:00
3:55 PM,86.0,64.4,48,30.04,10.0,West,6.9,-,N/A,,Mostly Cloudy,260,2013-08-28 19:55:00
4:15 PM,86.0,64.4,48,30.04,10.0,NW,4.6,-,N/A,,Mostly Cloudy,320,2013-08-28 20:15:00
4:35 PM,86.0,66.2,51,30.04,10.0,West,8.1,-,N/A,,Mostly Cloudy,270,2013-08-28 20:35:00
4:55 PM,86.0,68.0,55,30.03,10.0,West,5.8,-,N/A,,Mostly Cloudy,280,2013-08-28 20:55:00
5:15 PM,86.0,68.0,55,30.03,10.0,West,4.6,-,N/A,,Scattered Clouds,260,2013-08-28 21:15:00
5:35 PM,86.0,66.2,51,30.03,10.0,West,5.8,-,N/A,,Scattered Clouds,280,2013-08-28 21:35:00
5:55 PM,86.0,68.0,55,30.03,10.0,West,5.8,-,N/A,,Scattered Clouds,270,2013-08-28 21:55:00
6:15 PM,82.4,66.2,58,30.03,10.0,West,5.8,-,N/A,,Scattered Clouds,270,2013-08-28 22:15:00
6:35 PM,82.4,68.0,62,30.03,10.0,West,5.8,-,N/A,,Scattered Clouds,260,2013-08-28 22:35:00
6:55 PM,82.4,68.0,62,30.02,10.0,West,4.6,-,N/A,,Scattered Clouds,260,2013-08-28 22:55:00
7:15 PM,80.6,66.2,61,30.02,10.0,West,6.9,-,N/A,,Scattered Clouds,270,2013-08-28 23:15:00
7:35 PM,80.6,66.2,61,30.02,10.0,West,4.6,-,N/A,,Clear,270,2013-08-28 23:35:00
7:55 PM,78.8,68.0,69,30.02,10.0,Calm,Calm,-,N/A,,Clear,0,2013-08-28 23:55:00
8:15 PM,77.0,68.0,74,30.03,10.0,West,3.5,-,N/A,,Clear,270,2013-08-29 00:15:00
8:35 PM,77.0,68.0,74,30.02,10.0,Calm,Calm,-,N/A,,Clear,0,2013-08-29 00:35:00
8:55 PM,73.4,68.0,83,30.03,10.0,Calm,Calm,-,N/A,,Clear,0,2013-08-29 00:55:00
9:15 PM,73.4,69.8,88,30.04,10.0,Calm,Calm,-,N/A,,Clear,0,2013-08-29 01:15:00
9:35 PM,71.6,69.8,94,30.03,5.0,Calm,Calm,-,N/A,,Clear,0,2013-08-29 01:35:00
9:55 PM,71.6,69.8,94,30.05,7.0,Calm,Calm,-,N/A,,Clear,0,2013-08-29 01:55:00
10:15 PM,71.6,69.8,94,30.05,5.0,Calm,Calm,-,N/A,,Scattered Clouds,0,2013-08-29 02:15:00
10:35 PM,71.6,69.8,94,30.05,5.0,Calm,Calm,-,N/A,,Scattered Clouds,0,2013-08-29 02:35:00
10:55 PM,71.6,69.8,94,30.05,7.0,Calm,Calm,-,N/A,,Clear,0,2013-08-29 02:55:00
11:15 PM,71.6,68.0,88,30.05,5.0,Calm,Calm,-,N/A,,Clear,0,2013-08-29 03:15:00
11:35 PM,71.6,68.0,88,30.05,7.0,Calm,Calm,-,N/A,,Scattered Clouds,0,2013-08-29 03:35:00
11:55 PM,69.8,68.0,94,30.05,4.0,North,-9999.0,-,N/A,,Scattered Clouds,0,2013-08-29 03:55:00